Allentown, PA

7:14 PM EDT on April 25, 2017 (GMT -0400)
Lehigh Valley International

Weather History for KABE - October, 2012

Change the Weather History Date:

Saturday, October 27, 2012

  Actual Average Record
Temperature  
Mean Temperature 60 °F 49 °F  
Max Temperature 64 °F 60 °F 83 °F (1963)
Min Temperature 55 °F 38 °F 25 °F (2006)
Degree Days  
Heating Degree Days 5 16  
Month to date heating degree days 257 329  
Since 1 July heating degree days 334 444  
Cooling Degree Days 0 0  
Month to date cooling degree days 3 3  
Year to date cooling degree days 1048 753  
Growing Degree Days 10 (Base 50)    
Moisture  
Dew Point 55 °F    
Average Humidity 83    
Maximum Humidity 93    
Minimum Humidity 72    
Precipitation  
Precipitation T in 0.11 in 2.17 in (2003)
Month to date precipitation 3.70 3.45  
Year to date precipitation 34.28 37.84  
Snow  
Snow 0.00 in 0.00 in T in (1957)
Month to date snowfall 0.0 0.0  
Since 1 July snowfall 0.0 0.0  
Since 1 September snowfall 0.0 0.0  
Snow Depth 0.00 in    
Sea Level Pressure  
Sea Level Pressure 30.00 in    
Wind  
Wind Speed 6 mph (ENE)    
Max Wind Speed 12 mph    
Max Gust Speed 16 mph    
Visibility 8 miles    
Events Rain    
T = Trace of Precipitation, MM = Missing Value Source: NWS Daily Summary

Daily Weather History Graph

Daily Weather History Graph

Search for Another Location

Airport or City:

Trip Planner

Search our weather history database for the weather conditions in past years. The results will help you decide how hot, cold, wet, or windy it might be!

Date:

Astronomy

Oct. 27, 2012 Rise Set
Actual Time 7:26 AM EDT 6:03 PM EDT
Civil Twilight 6:58 AM EDT 6:31 PM EDT
Nautical Twilight 6:26 AM EDT 7:04 PM EDT
Astronomical Twilight 5:54 AM EDT 7:35 PM EDT
Moon 4:49 PM EDT (10/27) 5:18 AM EDT (10/27)
Length of Visible Light 11h 33m
Length of Day
10h 37m
Waxing Gibbous, 96% of the Moon is Illuminated
Oct 27
Waxing Gibbous
Oct 29
Full
Nov 6
Last Quarter
Nov 13
New
Nov 20
First Quarter

Hourly Weather History & Observations

Time (EDT) Temp. Dew Point Humidity Pressure Visibility Wind Dir Wind Speed Gust Speed Precip Events Conditions
12:09 AM 60.8 °F 57.2 °F 88% 30.10 in 6.0 mi NE 3.5 mph - N/A   Overcast
12:51 AM 59.0 °F 55.9 °F 90% 30.09 in 6.0 mi NE 4.6 mph - N/A   Overcast
1:51 AM 60.1 °F 57.0 °F 90% 30.07 in 7.0 mi ENE 4.6 mph - N/A   Overcast
2:30 AM 60.8 °F 57.2 °F 88% 30.07 in 9.0 mi ENE 5.8 mph - N/A   Overcast
2:51 AM 60.1 °F 57.0 °F 90% 30.06 in 9.0 mi ENE 5.8 mph - N/A   Overcast
3:51 AM 59.0 °F 55.9 °F 90% 30.04 in 8.0 mi NE 4.6 mph - N/A   Overcast
4:51 AM 59.0 °F 55.9 °F 90% 30.03 in 8.0 mi ENE 3.5 mph - N/A   Overcast
5:24 AM 59.0 °F 55.4 °F 88% 30.03 in 8.0 mi NE 3.5 mph - N/A   Overcast
5:51 AM 59.0 °F 55.9 °F 90% 30.02 in 7.0 mi ENE 4.6 mph - N/A   Overcast
6:02 AM 59.0 °F 55.4 °F 88% 30.02 in 8.0 mi ENE 4.6 mph - N/A   Overcast
6:51 AM 59.0 °F 55.9 °F 90% 30.02 in 7.0 mi ENE 5.8 mph - N/A   Overcast
7:51 AM 59.0 °F 55.9 °F 90% 30.03 in 7.0 mi ENE 4.6 mph - N/A   Overcast
8:51 AM 60.1 °F 55.9 °F 86% 30.04 in 7.0 mi NE 4.6 mph - N/A   Overcast
9:51 AM 61.0 °F 55.9 °F 83% 30.03 in 10.0 mi NE 6.9 mph - N/A   Overcast
10:40 AM 62.6 °F 55.4 °F 77% 30.03 in 10.0 mi ENE 5.8 mph - N/A   Overcast
10:51 AM 62.1 °F 55.0 °F 78% 30.02 in 10.0 mi East 6.9 mph - N/A   Overcast
11:51 AM 61.0 °F 55.9 °F 83% 30.02 in 6.0 mi ESE 6.9 mph - 0.00 in Rain Light Rain
12:06 PM 60.8 °F 55.4 °F 82% 30.01 in 7.0 mi East 8.1 mph - 0.00 in   Overcast
12:51 PM 62.1 °F 55.0 °F 78% 29.99 in 10.0 mi East 6.9 mph - 0.00 in   Overcast
1:51 PM 63.0 °F 55.0 °F 75% 29.97 in 10.0 mi East 9.2 mph - N/A   Overcast
2:51 PM 64.0 °F 55.0 °F 73% 29.96 in 10.0 mi East 8.1 mph - N/A   Overcast
3:51 PM 63.0 °F 54.0 °F 72% 29.94 in 10.0 mi East 5.8 mph - N/A   Overcast
4:51 PM 63.0 °F 55.0 °F 75% 29.95 in 10.0 mi NE 5.8 mph - N/A   Mostly Cloudy
5:51 PM 61.0 °F 54.0 °F 78% 29.95 in 10.0 mi NE 6.9 mph - N/A   Partly Cloudy
6:51 PM 57.0 °F 53.1 °F 87% 29.95 in 9.0 mi NE 5.8 mph - N/A   Mostly Cloudy
7:51 PM 57.0 °F 54.0 °F 89% 29.95 in 7.0 mi NE 5.8 mph - N/A   Clear
8:51 PM 55.9 °F 53.1 °F 90% 29.93 in 6.0 mi NE 5.8 mph - N/A   Clear
9:51 PM 55.9 °F 54.0 °F 93% 29.93 in 6.0 mi NE 4.6 mph - N/A   Clear
10:51 PM 57.0 °F 53.1 °F 87% 29.93 in 8.0 mi NE 6.9 mph - N/A   Clear
11:51 PM 55.9 °F 53.1 °F 90% 29.91 in 8.0 mi ENE 4.6 mph - N/A   Clear